Location: Rounton
(54.4000°N, 1.3500°W)
Time: 17:57:14
(UTC+01:00)

IRIDIUM 33 DEB - Pass Details

Date: 06 July 2022
Orbit: 708 x 709 km, 86.3° (Epoch: 10 August)

Event Time Altitude Azimuth Distance (km) Brightness Sun altitude
Rises 02:46:18 0° 2° (N) 3,120 ? -10.2°
Reaches altitude 10° 02:49:07 10° 18° (NNE) 2,196 ? -10.0°
Maximum altitude 02:52:52 22° 68° (ENE) 1,543 ? -9.8°
Drops below altitude 10° 02:56:37 10° 119° (ESE) 2,185 ? -9.6°
Sets 02:59:23 0° 135° (SE) 3,100 ? -9.4°
